Satellite-Ground Cal/Val Region Overpasses Predictions

Prediction of Satellite NPP Overpassing Cal/Val Region: PacNW

Region Location: (Latitude: 10.00, Longitude: 139.50) to (Latitude: 22.70, Longitude: 165.60).

Table of predicted overpasses for the next 14.0 days since TLE Epoch: 1/7/2017
Interval Starting Time Starting Location Ending Time Ending Location
1 01/07/2017 14:39:57 ( 22.68, 164.94) 01/07/2017 14:43:33 ( 10.00, 161.93)
2 01/07/2017 16:21:26 ( 22.68, 139.56) 01/07/2017 16:21:30 ( 22.44, 139.51)
3 01/08/2017 03:30:31 ( 10.03, 147.09) 01/08/2017 03:34:06 ( 22.65, 144.09)
4 01/08/2017 16:02:24 ( 22.69, 144.33) 01/08/2017 16:06:00 ( 10.01, 141.31)
5 01/09/2017 03:11:29 ( 10.02, 151.85) 01/09/2017 03:15:04 ( 22.64, 148.85)
6 01/09/2017 15:43:23 ( 22.64, 149.07) 01/09/2017 15:46:58 ( 10.02, 146.07)
7 01/10/2017 02:52:26 ( 10.01, 156.61) 01/10/2017 02:56:02 ( 22.69, 153.60)
8 01/10/2017 15:24:20 ( 22.66, 153.83) 01/10/2017 15:27:55 ( 10.03, 150.83)
9 01/11/2017 02:33:25 ( 10.06, 161.36) 01/11/2017 02:37:00 ( 22.68, 158.36)
10 01/11/2017 15:05:18 ( 22.67, 158.60) 01/11/2017 15:08:53 ( 10.05, 155.60)
11 01/12/2017 02:15:01 ( 12.34, 165.60) 01/12/2017 02:17:57 ( 22.66, 163.12)
12 01/12/2017 03:55:52 ( 10.05, 140.75) 01/12/2017 03:57:23 ( 15.40, 139.51)
13 01/12/2017 14:46:15 ( 22.68, 163.36) 01/12/2017 14:49:50 ( 10.06, 160.36)
14 01/13/2017 03:36:50 ( 10.04, 145.51) 01/13/2017 03:40:25 ( 22.66, 142.51)
15 01/13/2017 14:30:13 ( 12.13, 165.59) 01/13/2017 14:30:49 ( 10.01, 165.10)
16 01/13/2017 16:08:43 ( 22.68, 142.74) 01/13/2017 16:12:19 ( 10.00, 139.73)
17 01/14/2017 03:17:47 ( 10.03, 150.27) 01/14/2017 03:21:22 ( 22.65, 147.27)
18 01/14/2017 15:49:40 ( 22.69, 147.50) 01/14/2017 15:53:16 ( 10.01, 144.49)
19 01/15/2017 02:58:45 ( 10.02, 155.03) 01/15/2017 03:02:21 ( 22.70, 152.02)
20 01/15/2017 15:30:39 ( 22.64, 152.25) 01/15/2017 15:34:14 ( 10.02, 149.25)
21 01/16/2017 02:39:43 ( 10.01, 159.79) 01/16/2017 02:43:19 ( 22.69, 156.78)
22 01/16/2017 15:11:36 ( 22.65, 157.01) 01/16/2017 15:15:11 ( 10.03, 154.01)
23
